SCP
0 0 0 0 0 0 0 0 0 0 0 0 0 0 0 0 0 0 0 0 0 0 0 0 0 0 0 0 0 0 0 0 0 0 0 0 0 0 0 0 0 0 0
0 0 0 0 0 0 0 0 0 0 0 0 0 0 0 0 0 0 0 0 0 0 0 0 0 0 0 0 0 0 0 0 0 0 0 0 0 0 0 0 0 0 0
0 0 0 0 0 0 0 0 0 0 0 0 0 0 0 0 0 0 0 0 0 0 0 0 0 0 0 0 0 0 0 0 0 0 0 0 0 0 0 0 0 0 0
0 0 0 0 0 0 0 0 0 0 0 0 0 0 0 0 0 0 0 0 0 0 0 0 0 0 0 0 0 0 0 0 0 0 0 0 0 0 0 0 0 0 0
0 0 0 0 0 0 0 0 0 0 0 0 0 0 0 0 0 0 0 0 0 0 0 0 0 0 0 0 0 0 0 0 0 0 0 0 0 0 0 0 0 0 0
0 0 0 0 0 0 0 0 0 0 0 0 0 0 0 0 0 0 0 0 0 0 0 0 0 0 0 0 0 0 0 0 0 0 0 0 0 0 0 0 0 0 0
0 0 0 0 0 0 0 0 0 0 0 0 0 0 0 0 0 0 0 0 0 0 0 0 0 0 0 0 0 0 0 0 0 0 0 0 0 0 0 0 0 0 0
0 0 0 0 0 0 0 0 0 0 0 0 0 0 0 0 0 0 0 0 0 0 0 0 0 0 0 0 0 0 0 0 0 0 0 0 0 0 0 0 0 0 0
0 0 0 0 0 0 0 0 0 0 0 0 0 0 0 0 0 0 0 0 0 0 0 0 0 0 0 0 0 0 0 0 0 0 0 0 0 0 0 0 0 0 0
0 0 0 0 0 0 0 0 0 0 0 0 0 0 0 0 0 0 0 0 0 0 0 0 0 0 0 0 0 0 0 0 0 0 0 0 0 0 0 0 0 0 0
0 0 0 0 0 0 0 0 0 0 0 0 0 0 0 0 0 0 0 0 0 0 0 0 0 0 0 0 0 0 0 0 0 0 0 0 0 0 0 0 0 0 0
0 0 0 0 0 0 0 0 0 0 0 0 0 0 0 0 0 0 0 0 0 0 0 0 0 0 0 0 0 0 0 0 0 0 0 0 0 0 0 0 0 0 0
0 0 0 0 0 0 0 0 0 0 0 0 0 0 0 0 0 0 0 0 0 0 0 0 0 0 0 0 0 0 0 0 0 0 0 0 0 0 0 0 0 0 0
0 0 0 0 0 0 0 0 0 0 0 0 0 0 0 0 0 0 0 0 0 0 0 0 0 0 0 0 0 0 0 0 0 0 0 0 0 0 0 0 0 0 0
0 0 0 0 0 0 0 0 0 0 0 0 0 0 0 0 0 0 0 0 0 0 0 0 0 0 0 0 0 0 0 0 0 0 0 0 0 0 0 0 0 0 0
0 0 0 0 0 0 0 0 0 0 0 0 0 0 0 0 0 0 0 0 0 0 0 0 0 0 0 0 0 0 0 0 0 0 0 0 0 0 0 0 0 0 0
0 0 0 0 0 0 0 0 0 0 0 0 0 0 0 0 0 0 0 0 0 0 0 0 0 0 0 0 0 0 0 0 0 0 0 0 0 0 0 0 0 0 0
0 0 0 0 0 0 0 0 0 0 0 0 0 0 0 0 0 0 0 0 0 0 0 0 0 0 0 0 0 0 0 0 0 0 0 0 0 0 0 0 0 0 0
0 0 0 0 0 0 0 0 0 0 0 0 0 0 0 0 0 0 0 0 0 0 0 0 0 0 0 0 0 0 0 0 0 0 0 0 0 0 0 0 0 0 0
0 0 0 0 0 0 0 0 0 0 0 0 0 0 0 0 0 0 0 0 0 0 0 0 0 0 0 0 0 0 0 0 0 0 0 0 0 0 0 0 0 0 0
0 0 0 0 0 0 0 0 0 0 0 0 0 0 0 0 0 0 0 0 0 0 0 0 0 0 0 0 0 0 0 0 0 0 0 0 0 0 0 0 0 0 0
0 0 0 0 0 0 0 0 0 0 0 0 0 0 0 0 0 0 0 0 0 0 0 0 0 0 0 0 0 0 0 0 0 0 0 0 0 0 0 0 0 0 0
0 0 0 0 0 0 0 0 0 0 0 0 0 0 0 0 0 0 0 0 0 0 0 0 0 0 0 0 0 0 0 0 0 0 0 0 0 0 0 0 0 0 0
0 0 0 0 0 0 0 0 0 0 0 0 0 0 0 0 0 0 0 0 0 0 0 0 0 0 0 0 0 0 0 0 0 0 0 0 0 0 0 0 0 0 0
0 0 0 0 0 0 0 0 0 0 0 0 0 0 0 0 0 0 0 0 0 0 0 0 0 0 0 0 0 0 0 0 0 0 0 0 0 0 0 0 0 0 0
0 0 0 0 0 0 0 0 0 0 0 0 0 0 0 0 0 0 0 0 0 0 0 0 0 0 0 0 0 0 0 0 0 0 0 0 0 0 0 0 0 0 0
Wind_Speed
12 10 11 11 11 12 13 15 14 12 10 8 7 7 6 4 4 5 6 7 7 7 6 4 4 4 4 4 4 3 3 2 1 1 4 4 5 5 5 4 4 5 5
8 9 9 10 12 14 14 14 15 14 13 10 8 5 4 4 4 4 5 6 7 7 6 6 5 5 4 4 4 3 2 2 2 2 2 4 5 3 3 3 3 5 4
12 11 10 10 11 12 14 13 14 14 13 10 6 4 4 3 4 4 4 6 7 6 6 6 5 5 4 4 4 4 4 3 2 3 2 2 3 4 3 3 3 3 3
9 9 9 9 9 10 9 10 12 12 12 11 10 9 7 7 6 4 4 4 5 6 6 6 5 4 4 4 4 4 4 3 3 2 3 4 2 3 5 4 3 3 4
9 8 8 8 6 5 6 7 8 10 11 12 12 11 7 5 4 4 5 4 3 3 4 4 4 4 3 3 3 3 3 3 2 2 2 3 3 4 5 7 5 4 4
6 5 4 4 3 3 3 5 7 8 10 12 12 12 10 8 6 5 5 3 2 2 2 3 3 2 2 2 1 1 1 1 1 1 1 2 2 2 3 6 8 7 5
7 6 6 5 4 4 4 4 6 6 8 10 11 11 10 9 8 6 5 5 3 2 3 4 4 3 3 3 3 3 2 1 1 1 1 1 2 2 3 5 7 7 5
6 6 6 5 4 4 4 4 6 6 6 8 9 8 8 6 5 5 5 5 4 4 4 5 5 5 5 4 4 4 3 3 2 2 2 1 2 2 2 3 6 9 6
6 6 5 4 4 4 3 4 6 5 6 7 8 8 8 8 8 8 7 6 5 5 6 6 6 5 5 5 5 4 3 3 3 3 3 2 2 2 2 2 3 5 9
6 6 5 4 4 3 3 4 5 6 6 7 8 8 9 9 9 9 8 8 7 6 7 7 6 6 6 5 5 4 4 4 3 3 3 3 3 3 3 3 3 3 6
8 6 5 4 4 4 4 5 6 7 7 8 9 10 10 10 10 9 8 8 7 7 7 6 6 6 6 5 5 4 4 4 3 3 4 4 4 3 3 3 3 3 4
7 7 6 5 5 5 5 5 6 7 7 9 10 11 10 10 10 9 8 8 8 7 6 6 6 6 5 5 5 4 4 4 3 4 4 4 4 4 4 4 4 4 5
8 7 6 6 6 5 5 5 6 7 7 9 11 11 10 10 10 9 8 7 8 7 6 6 6 6 5 4 4 4 3 3 3 3 4 4 4 4 4 4 5 5 6
9 9 7 6 6 6 6 6 6 6 8 9 10 10 9 9 9 8 8 7 7 7 6 6 5 5 4 4 3 3 3 3 3 3 3 4 4 4 5 5 5 5 6
11 11 10 9 8 7 7 7 7 6 8 9 10 9 8 8 8 8 7 7 6 6 6 6 5 4 3 3 3 2 2 2 3 3 3 4 5 6 6 6 6 6 6
14 13 12 12 12 11 10 9 8 7 7 9 9 8 8 8 8 7 7 7 6 5 5 5 4 4 2 5 5 3 2 2 2 3 4 4 4 6 10 11 11 10 9
15 16 15 15 13 12 12 11 10 8 8 9 9 8 8 8 7 7 7 6 5 5 5 4 4 3 3 5 5 4 2 2 2 3 4 4 4 6 6 9 11 10 12
15 16 15 14 12 11 10 10 9 9 9 9 8 8 8 8 7 6 6 5 4 4 3 3 3 3 3 5 5 4 2 2 3 3 4 5 6 6 8 7 7 7 7
15 14 13 12 12 13 13 12 11 10 10 9 9 7 8 8 7 7 6 4 4 3 3 2 2 2 3 5 6 5 1 2 3 4 4 5 6 11 14 9 9 10 8
9 10 11 11 14 13 14 14 13 11 11 10 8 7 7 7 7 6 5 3 3 3 3 2 2 2 2 5 6 6 1 2 3 4 4 6 9 13 14 8 8 10 9
8 11 13 13 13 14 14 14 12 11 9 8 8 7 6 6 6 5 4 4 3 3 2 2 2 1 2 4 6 7 2 3 4 4 4 5 13 14 15 12 7 10 11
9 12 13 12 12 14 15 14 12 9 9 9 8 7 6 5 5 6 5 4 4 4 2 2 1 1 2 3 5 7 7 7 4 4 4 6 14 15 14 10 11 13 9
9 9 12 12 10 10 12 14 11 11 10 9 8 7 6 5 5 5 5 4 3 3 2 1 0 1 2 3 6 7 9 10 5 4 9 12 14 12 8 10 11 7 4
8 9 12 13 10 8 7 9 12 11 11 10 9 7 7 6 4 3 3 3 3 3 2 1 1 1 2 3 3 3 4 6 6 5 6 10 11 9 7 5 5 3 3
6 7 10 12 11 9 9 9 11 11 11 9 8 7 6 6 5 3 2 3 2 3 3 3 2 2 2 4 8 5 3 3 4 5 3 3 3 3 4 3 3 3 3
7 7 8 10 10 10 9 9 9 10 11 9 8 6 5 5 4 4 2 1 1 2 2 2 2 2 4 7 8 8 9 10 9 4 2 3 3 3 4 5 4 3 3
Wind_Direction
219 208 202 196 188 187 187 187 186 185 179 182 186 189 194 189 190 192 193 193 194 192 189 189 189 186 199 209 201 200 227 247 218 287 301 291 269 263 264 264 271 277 277
218 210 202 193 190 189 189 189 189 186 185 189 189 185 176 185 193 191 196 197 196 196 193 194 196 195 201 209 204 193 199 232 186 203 301 314 319 314 274 268 266 274 288
208 204 197 195 192 192 191 190 190 188 188 181 172 162 170 177 191 198 200 203 201 199 195 198 197 195 194 209 211 199 202 229 222 201 214 269 288 314 300 282 272 275 276
206 199 192 190 192 194 190 189 187 187 185 178 180 180 189 196 197 188 195 203 201 199 196 193 193 192 193 204 209 201 204 212 235 219 226 238 265 285 303 301 288 284 280
197 193 190 188 184 179 181 185 182 185 183 182 185 186 191 190 174 174 182 193 192 186 182 177 177 183 189 199 199 197 206 209 226 221 222 237 244 234 266 291 299 303 280
185 175 163 151 148 145 161 172 175 184 183 184 186 188 187 179 171 176 174 169 136 105 114 130 135 140 145 161 173 173 178 207 233 248 237 242 260 266 266 286 299 297 290
166 160 155 152 151 153 162 170 170 177 180 181 185 186 182 176 176 171 162 147 127 106 97 98 98 95 91 86 89 90 75 65 62 319 291 279 279 291 288 292 299 296 289
167 163 161 155 153 155 159 164 166 166 167 169 171 167 161 155 149 142 134 128 119 113 102 95 90 85 84 83 82 80 70 61 55 30 7 338 326 321 308 302 308 306 297
166 160 152 146 148 147 152 158 152 146 146 145 140 135 133 126 121 115 111 109 108 104 96 92 88 80 76 75 78 72 60 58 47 31 17 0 343 338 330 319 310 305 304
163 157 152 147 141 136 124 122 129 129 125 123 122 118 114 114 115 111 108 107 103 100 97 90 86 79 71 68 73 69 54 57 41 27 23 10 348 345 341 330 318 300 294
171 163 152 141 130 118 114 113 113 113 112 111 110 108 106 107 106 105 107 107 102 98 97 97 93 87 79 74 75 69 57 55 38 24 17 1 351 346 340 335 327 313 303
165 156 149 139 133 129 124 119 117 113 112 111 108 107 107 107 106 107 105 103 99 93 94 95 92 87 81 75 75 71 57 49 32 13 5 352 348 343 339 335 324 317 312
158 155 152 151 148 142 134 125 119 117 114 114 112 110 110 110 110 110 105 101 100 95 90 91 91 89 86 80 71 70 57 44 25 5 353 342 342 336 333 325 317 314 309
168 167 166 163 156 149 143 135 126 123 120 116 115 114 114 114 113 109 103 100 100 99 93 88 88 89 91 86 79 69 57 34 10 351 339 332 330 322 321 314 308 305 304
181 180 176 170 163 156 150 142 135 129 126 122 119 118 115 112 110 107 103 99 95 95 96 92 85 82 87 81 80 73 50 18 352 339 328 320 317 314 316 312 309 308 304
192 186 180 176 174 170 163 153 145 137 130 127 124 123 120 116 113 111 109 105 99 96 95 92 93 84 69 58 55 57 43 0 337 326 322 315 310 313 319 316 313 311 308
192 188 187 184 180 174 166 160 151 137 130 129 129 129 127 122 120 119 114 109 106 103 97 90 85 75 51 45 40 40 29 337 320 315 316 317 311 306 300 305 309 304 299
194 192 188 183 173 163 154 145 141 140 138 137 137 136 133 128 125 120 115 110 106 104 101 87 74 67 36 27 24 17 17 327 313 306 303 304 307 307 312 305 299 292 288
194 189 181 170 161 159 153 146 145 145 145 147 146 145 141 137 133 128 122 117 113 104 95 88 72 58 17 12 10 10 348 328 313 303 298 298 299 310 319 314 305 303 298
174 165 155 150 158 158 152 152 155 155 158 155 148 142 140 139 137 133 126 117 117 110 100 81 60 43 3 358 1 1 344 316 311 310 306 304 314 317 320 312 304 304 307
159 154 154 159 162 156 155 157 158 163 153 140 135 133 133 132 131 125 119 124 120 111 99 86 50 21 357 346 351 349 336 307 309 311 312 308 318 319 319 318 307 304 312
148 152 154 155 154 157 158 158 161 149 138 137 136 134 131 129 128 127 126 124 126 122 115 100 54 357 338 335 336 339 333 327 309 302 303 303 314 317 319 319 317 322 326
147 147 146 144 147 158 160 157 151 143 140 138 138 137 131 126 132 138 138 134 135 136 133 123 110 306 310 316 330 330 328 324 316 299 306 312 316 319 320 322 329 336 332
142 140 143 147 150 148 142 141 143 145 144 144 144 144 142 140 137 137 144 150 156 151 148 163 215 272 292 290 290 288 303 312 311 306 308 316 321 326 328 331 336 334 323
138 147 153 153 150 142 134 138 146 147 145 146 147 149 150 150 148 145 159 166 179 177 176 192 203 228 273 291 313 319 310 307 299 312 313 323 327 331 328 324 320 322 330
145 146 147 148 148 146 143 146 151 152 150 151 156 159 156 155 155 152 143 155 167 215 230 225 231 240 278 308 321 322 324 326 327 335 324 317 319 318 317 317 317 315 318